Regional Weather Roundup
Issued by NWS State College, PA

Home | Current Version | Previous Version | Graphics & Text | Print | Product List | Glossary On
Versions: 1 2 3 4 5 6 7 8 9 10 11 12 13 14 15 16 17 18 19 20 21 22 23 24 25 26 27 28 29 30 31 32 33 34 35 36 37 38 39 40 41 42 43 44 45 46 47 48 49 50
000
ASUS41 KCTP 290803
RWRCTP

REGIONAL WEATHER ROUNDUP
NATIONAL WEATHER SERVICE STATE COLLEGE PA
400 AM EDT TUE JUL 29 2014

Note: "fair" indicates few or no clouds below 12,000 feet with no
significant weather and/or obstructions to visibility.

* = STATION THAT DOES NOT REPORT PRECIPITATION /E.G. RAIN...SNOW...ETC/
    THUNDER OR FOG.

PAZ002>004-007>009-013>016-020>023-029>032-290900-
WESTERN PENNSYLVANIA

CITY           SKY/WX    TMP DP  RH WIND       PRES   REMARKS
ERIE           CLOUDY    61  51  70 N6        29.91F
MEADVILLE      CLOUDY    53  49  86 W3        29.93S
FRANKLIN*      CLOUDY    52  46  82 W6        29.94S
NEW CASTLE       N/A     54  50  86 CALM      29.96S
BEAVER COUNTY  NOT AVBL
BUTLER*        CLOUDY    52  48  87 W3        29.96S
PITTSBURGH INT PTCLDY    52  50  93 W7        29.95S
PITTSBURGH     CLEAR     52  49  89 W6        29.94F
INDIANA*       CLOUDY    54  50  87 W5        29.97S
LATROBE        CLEAR     50  50 100 SW6       29.95S
WASHINGTON CO* PTCLDY    54  48  82 W5        29.96F
$$

PAZ004>006-010>012-017>019-024>028-033>037-041-042-045-046-049>053-290900-
CENTRAL PENNSYLVANIA

CITY           SKY/WX    TMP DP  RH WIND       PRES   REMARKS
BRADFORD       CLOUDY    52  49  89 NW8       29.90R
DUBOIS         CLOUDY    53  51  93 W8        29.90S
CLEARFIELD     CLOUDY    55  52  89 SW6       29.90S
JOHNSTOWN      CLEAR     49  46  90 W9        29.92F
ALTOONA        CLEAR     53  49  86 W9        29.91S
STATE COLLEGE  CLOUDY    57  53  84 W5        29.87S
WILLIAMSPORT   CLOUDY    61  55  81 NW3       29.83S
SELINSGROVE    PTCLDY    60  55  83 NW6       29.85R
FT INDIANTOWN  CLEAR     57  57  99 CALM      29.84R
CAPITAL CITY   CLEAR     58  56  93 W5        29.85R
HARRISBURG     PTCLDY    61  55  81 CALM      29.84R
YORK           CLEAR     56  54  93 NW3       29.85R
$$

PAZ038>040-043-044-047-048-054-055-060>062-067>071-290900-
EASTERN PENNSYLVANIA

CITY           SKY/WX    TMP DP  RH WIND       PRES   REMARKS
SCRANTON       CLOUDY    59  54  83 CALM      29.82S
MOUNT POCONO   CLOUDY    56  52  86 NW8       29.83R
ALLENTOWN      CLEAR     60  53  77 NW5       29.82R
QUAKERTOWN*    SUNNY     57  55  94 CALM      29.82S
READING        CLEAR     61  55  81 W5        29.82R
LANCASTER      CLEAR     59  55  87 W5        29.84R
COATESVILLE    SUNNY     59  59 100 NW9       29.84S
POTTSTOWN      CLEAR     59  55  87 W3        29.83S
BLUE BELL      CLEAR     61  57  88 CALM      29.81R
DOYLESTOWN     CLEAR     60  55  83 W3        29.81R
WILLOW GROVE   NOT AVBL
NORTH PHILA    CLEAR     65  55  70 NW6       29.81S
PHILADELPHIA   CLEAR     66  55  67 NW8       29.82R
$$


USA.gov is the U.S. government's official web portal to all federal, state and local government web resources and services.